{"data":{"norad_id":64590,"intl_designator":"2025-135BQ","name":"TRANSPORTER-14 OBJECT BQ","alt_names":[],"object_type":"PAYLOAD","status":"ACTIVE","operator":null,"country":"TBD","launch_date":"2025-06-23","launch_site_code":"AFWTR","launch_vehicle":null,"mission":null,"orbit_class":"UNKNOWN","rcs_meters":null,"size_class":null,"mass_kg":null,"dimensions":null,"purposes":[],"wikipedia_slug":null,"has_3d_model":false,"image_url":null,"decayed_at":null,"tle_current":{"epoch":"2026-09-21T19:47:16.176192Z","epoch_age_seconds":63248,"freshness":"FRESH","line1":"1 64590U 25135BQ  26264.82449278  .00000731  00000+0  73372-4 0  9990","line2":"2 64590  97.7799  18.3121 0005796  25.2346 334.9156 14.94327113 68335","mean_motion":14.94327113,"eccentricity":0.0005796,"inclination_deg":97.7799,"raan_deg":18.3121,"arg_perigee_deg":25.2346,"mean_anomaly_deg":334.9156,"bstar":7.3372e-5,"rev_number":6833,"period_min":96.364443064214,"perigee_km":580.42659048223,"apogee_km":588.49763537393,"semimajor_km":6962.5991129281,"source":"CELESTRAK","updated_at":"2026-09-22T09:00:29.856835Z"}}}